User: anonymous   Login
Location: Luxembourg
(49.6117°N, 6.1300°E)
Time: 13:27:30
(UTC+01:00)
Language:

POLYITAN 1 - Orbit

View from above orbital plane
View from above orbital plane
View from above satellite
View from above satellite

Ground track
Ground track

The orbit data is extracted from the following two-line orbital elements,

1 40042U 14033AJ  19083.72603861 +.00000312 +00000-0 +39566-4 0  9994
2 40042 097.9143 003.8132 0014226 337.7479 022.3118 14.88597289257931
Epoch (UTC): 24 March 2019 17:25:29
Eccentricity: 0.0014226
inclination: 97.9143°
perigee height: 592 km
apogee height: 612 km
right ascension of ascending node: 3.8132°
argument of perigee: 337.7479°
revolutions per day: 14.88597289
mean anomaly at epoch: 22.3118°
orbit number at epoch: 25793

The dashed part of the orbit path shows where the satellite is in the earth's shadow,  

DLR